FENGYUN 1C DEB, 30257

Orbit data source: Space-Track

FENGYUN 1C DEB, 30257 is space debris in SSO originally from a launch on Mon, 10 May 1999 UTC launched from the Taiyaun Space Center, China (TSC). Fengyun 1C debris stems from the Chinese weather satellite Fengyun-1C, which was intentionally destroyed by a Chinese anti-satellite missile in 2007. This event dramatically increased the amount of space debris, with thousands of trackable fragments posing hazards to satellites and human spaceflight. The Fengyun 1C debris cloud has become a focal point in discussions about space sustainability and the need for international regulations to prevent the creation of new debris.

Loading next visibility...
Identifier
30257, 1999-025XS
Orbit
SSO
Country
Flag of CNCN / PRC
Related business
Manufacturer
Unknown
Mission
Spacecraft
Bus & Motor
Unknown
Mass
Unknown
Launch date (UTC)
1999-05-10 (27 years ago)
Launch vehicle
Unknown
Launch site
Taiyaun Space Center, China (TSC)
Object type
Payload
Rocket body
Debris
Shape & HBR
Unknown shape, 0.1 m
Radar Cross Section
Medium (>0.1 m² and <1 m²)

Expand to show TLE details & history
Last TLE update: 13 hours ago

TLE from 13 hours ago
0 FENGYUN 1C DEB
1 30257U 99025XS  26264.94907363  .00000088  00000-0  73433-4 0  9993
2 30257  98.7633 260.8799 0059018  19.2337  10.2191 14.09856508 12052
Epoch: 2026-09-21T22:46Z
TLE epoch observation values (Epoch: 2026-09-21T22:46:39.961Z)
Latitude
29.24366°
Longitude
-86.53304°
Altitude
821.439 km
Speed
7.467 km/s
True Right ascension
17h 03m 49s
True Declination
29° 05' 55"
Sunlit
Object was in daylight at epoch
Visualization orbit readout
Latitude
Unknown
Longitude
Unknown
Altitude
Unknown
Speed
Unknown
Apparent Right ascension
Unknown
Apparent Declination
Unknown
Sunlit
N/A
Visualization observer readout
Local Sidereal Time
04:29:35
Azimuth
Unknown
Elevation
Unknown
Doppler factor
Unknown
Orbital elements
Apogee altitude
899.738 km
Perigee altitude
814.337 km
Semi-major axis
7,235.174 km
Eccentricity
0.0059
Inclination
98.7633°
RAAN
260.8799°
Arg. of periapsis
19.2337°
True anomaly
10.33996°
Mean anomaly
10.2191°
Eccentric anomaly
10.27944°
Mean motion
3.52671 °/min
Orbital period
102.08 mins
BSTAR
0.000073433
Loading maneuver chart data...
Computing Atmospheric mass density...

Documentation

Showing up to 5 results
|